Location: Chmeli�t?
(49.8978°N, 15.0526°E)
Time: 23:08:08
(UTC+00:00)

STARLINK-1291 - Pass Details

Date: 07 June 2020
Orbit: 548 x 551 km, 53.0° (Epoch: 05 July)

Event Time Altitude Azimuth Distance (km) Brightness Sun altitude
Exits shadow 23:37:20 33° 165° (SSE) 922 4.2 -16.8°
Drops below altitude 10° 23:41:48 10° 76° (ENE) 1,819 6.6 -16.7°
Enters shadow 00:41:21 -64° 247° (WSW) 12,053 10.3 -13.8°
Maximum altitude 01:17:19 74° 343° (NNW) 572 3.8 -11.1°
